Flag for India Weather past 2 weeks in Chennai, Tamil Nadu, India

Now
77 °F

Fog.


Feels Like: 78 °F
Forecast: 80 / 97 °F
Wind: No wind

Location: Madras / Minambakkam

Current Time: Aug 5, 2015 at 6:02:06 AM

Latest Report: Aug 5, 2015 at 5:10 AM


Visibility: 3 mi

Pressure: 29.65 "Hg

Humidity: 94%

Dew point: 75 °F

Location of ChennaiLocation

Historic Weather in Chennai — Graph

°F

Chennai temperature yesterday

Maximum temperature yesterday: 97 °F (at 2:40 PM)
Minimum temperature yesterday: 75 °F (at 11:40 PM)
Average temperature yesterday: 86 °F

Past Weeks' High & Low Weather Summary

 TemperatureHumidityPressure
High99 °F (Jul 21, 2:10 PM)94% (Jul 23, 9:40 PM)29.86 "Hg (Jul 23, 9:40 PM)
Low75 °F (Aug 1, 12:40 AM)41% (Jul 30, 1:10 PM)29.53 "Hg (Jul 21, 4:40 PM)
Average86 °F72%29.71 "Hg
* Reported Jul 21 4:40 AM — Aug 5 4:40 AM, Chennai, Weather by CustomWeather, © 2015

Note: Actual official high and low records may vary slightly from our data, if they occured in-between our weather recording intervals... More about our weather records

Advertising

Chennai weather history for previous 24 hours

 ConditionsComfort  
Time TempWeatherWind HumidityBarometerVisibility
4:40 AM
Wed, Aug 5
77 °FFog.No wind94%29.65 "Hg3 mi
4:10 AM77 °FFog.No wind94%29.65 "Hg3 mi
3:40 AM77 °FFog.No wind94%29.68 "Hg3 mi
2:40 AM75 °FThunderstorms. Partly cloudy.3 mph94%29.68 "Hg2 mi
1:40 AM75 °FThunderstorms. Partly cloudy.3 mph89%29.71 "Hg2 mi
12:40 AM75 °FThunderstorms. Mostly cloudy.5 mph89%29.74 "Hg1 mi
11:40 PM
Tue, Aug 4
75 °FThunderstorms. Mostly cloudy.6 mph89%29.77 "Hg1 mi
10:40 PM77 °FThunderstorms. Mostly cloudy.6 mph89%29.74 "Hg1 mi
9:10 PM79 °FStrong thunderstorms. Mostly cloudy.5 mph89%29.74 "Hg1 mi
8:40 PM81 °FThunderstorms. Mostly cloudy.5 mph89%29.71 "Hg1 mi
7:40 PM86 °FPassing clouds.3 mph66%N/A4 mi
7:10 PM86 °FPassing clouds.6 mph66%29.65 "Hg4 mi
6:40 PM88 °FScattered clouds.6 mph66%29.65 "Hg4 mi
6:10 PM90 °FScattered clouds.6 mph63%29.65 "Hg4 mi
5:40 PM90 °FScattered clouds.7 mph63%29.65 "Hg4 mi
5:10 PM90 °FScattered clouds.6 mph63%29.62 "Hg4 mi
4:40 PM91 °FScattered clouds.7 mph63%29.62 "Hg4 mi
4:10 PM93 °FScattered clouds.7 mph63%29.62 "Hg4 mi
3:40 PM97 °FScattered clouds.6 mph50%29.62 "Hg4 mi
3:10 PM97 °FScattered clouds.6 mph50%29.65 "Hg5 mi
2:40 PM97 °FScattered clouds.6 mph50%29.65 "Hg5 mi
1:40 PM95 °FScattered clouds.9 mph53%29.68 "Hg5 mi
1:10 PM95 °FScattered clouds.9 mph53%29.68 "Hg5 mi
12:40 PM93 °FScattered clouds.9 mph56%29.68 "Hg5 mi
12:10 PM93 °FScattered clouds.8 mph56%29.71 "Hg5 mi
11:40 AM91 °FScattered clouds.9 mph59%29.71 "Hg5 mi
11:10 AM91 °FScattered clouds.8 mph59%29.71 "Hg5 mi
10:40 AM91 °FScattered clouds.7 mph59%29.74 "Hg5 mi
10:10 AM90 °FPartly sunny.8 mph63%29.74 "Hg5 mi
9:40 AM88 °FPartly sunny.8 mph62%29.74 "Hg5 mi
8:40 AM82 °FBroken clouds.5 mph79%29.71 "Hg4 mi
8:10 AM82 °FBroken clouds.3 mph79%29.71 "Hg4 mi
7:40 AM81 °FBroken clouds.5 mph79%29.71 "Hg4 mi
7:10 AM81 °FBroken clouds.5 mph79%29.71 "Hg4 mi
6:40 AM81 °FBroken clouds.5 mph79%29.71 "Hg4 mi
6:10 AM81 °FPartly cloudy.No wind79%29.71 "Hg4 mi
Weather by CustomWeather, © 2015

See weather overviewHow to use our weather pages